Location: Geçitköy
(36.7327°N, 29.8010°E)
Time: 20:04:03
(UTC+00:00)

Cosmos 2369 Rocket - Pass Details

Date: 12 January 2026
Orbit: 826 x 853 km, 71.0° (Epoch: 11 February)

Event Time Altitude Azimuth Distance (km) Brightness Sun altitude
Rises 15:42:33 0° 339° (NNW) 3,424 5.4 -7.7°
Reaches altitude 10° 15:45:01 10° 340° (NNW) 2,483 4.6 -8.1°
Maximum altitude 15:50:44 83° 68° (ENE) 859 2.2 -9.2°
Drops below altitude 10° 15:56:24 10° 157° (SSE) 2,455 4.6 -10.3°
Sets 15:58:49 0° 158° (SSE) 3,382 5.3 -10.7°
